www.pogodaiklimat.ru

Погода и климат >> Архив погоды >> Индия >> Cannanore


ПОГОДА в Cannanore

  • Прогноз погоды в Cannanore
  • Монитор погоды в Cannanore
  • Климат города

АРХИВ ПОГОДЫ в Cannanore

Время (UTC), дата Ветер
(напр.,м/с)
 
Видим.   Явления Облачность Т
(С)
Тd
(С)
f
(%)
Тe
(С)
Тes
(С)
Комфортность P
(гПа)
Po
(гПа)
Тmin
(С)
Tmax
(С)
R
(мм)
R24
(мм)
S
(см)
00 20.05 штиль 0 2000 м дымка {дождь, морось} 9/4 300 м
[Sc Ac As Ci fib]
+24.4 +22.9 91 +32 +32 очень
душно
1007.2 1007.0 7
03 20.05 ЮВ 2 4000 м мгла 9/3 300 м
[Cu Sc Ac As Ci fib]
+25.4 +22.7 85 +33 +36 очень
душно
1007.6 1008.0 +23.1 +33.6 7
06 20.05 З 2 10 км 8/1 600 м
[Cu hum Ac trans Ci fib]
+30.8 +23.3 64 +41 +52 опасность
перегрева
1008.7 1009.0
09 20.05 З 3 10 км 6/1 600 м
[Cb calv Ac trans Ci fib]
+33.0 +26.0 67 +49 +59 опасность
перегрева
1006.5 1007.0
12 20.05 З 2 10 км 5/1 600 м
[Cu hum Ac trans Ci fib]
+31.0 +24.7 69 +44 +45 опасность
перегрева
1005.9 1006.0 +33.3
00 21.05 В 2 2000 м дымка 6/3 600 м
[Sc Ac trans Ci fib]
+25.4 +23.3 88 +34 +34 очень
душно
1006.7 1007.0
03 21.05 В 2 10 км 9/3 600 м
[Cu Sc Ac trans Ci fib]
+27.6 +23.2 77 +37 +40 очень
душно
1008.8 1009.0 +25.1 +33.3
06 21.05 З 2 10 км 8/3 300 м
[Cu Sc Ac trans Ci fib]
+31.8 +25.3 69 +46 +55 опасность
перегрева
1008.9 1009.0
09 21.05 З 3 10 км 6/3 300 м
[Cb cap Ac trans Ci ing]
+32.8 +25.2 64 +47 +54 опасность
перегрева
1007.1 1007.0
12 21.05 З 3 10 км 6/1 600 м
[Cb calv Ac trans Ci fib]
+31.2 +25.0 70 +45 +46 опасность
перегрева
1005.9 1006.0 +33.6
00 22.05 СЗ 2 2000 м дымка 8/4 300 м
[Cb calv Ac trans Ci fib]
+26.4 +23.5 84 +36 +36 очень
душно
1006.8 1007.0
03 22.05 В 1 4000 м 8/3 300 м
[Cu Sc Ac trans Ci fib]
+29.0 +22.5 68 +38 +41 очень
душно
1008.2 1008.0 +26.2 +33.6
06 22.05 ЮЗ 1 10 км 6/3 600 м
[Cu Sc Ac trans Ci fib]
+33.0 +25.1 63 +47 +60 опасность
перегрева
1007.7 1008.0
09 22.05 З 2 10 км 5/1 600 м
[Sc diur, vesp Ac trans Ci fib]
+33.6 +24.9 60 +47 +58 опасность
перегрева
1005.9 1006.0
12 22.05 З 2 10 км 4/1 600 м
[Cb calv Ci fib]
+32.0 +25.8 70 +47 +49 опасность
перегрева
1005.3 1005.0 +34.6
00 23.05 СЗ 1 2000 м дымка 6/3 300 м
[Cu Sc Ac trans Ci fib]
+27.6 +26.5 94 +42 +42 опасность
перегрева
1006.5 1007.0
03 23.05 СЗ 1 4000 м мгла 6/3 300 м
[Cu Sc Ci fib]
+30.0 +26.9 84 +47 +52 опасность
перегрева
1008.1 1008.0 +27.0 +34.6
06 23.05 ЮЗ 2 10 км 9/3 600 м
[Sc diur, vesp Ac As Ci fib]
+32.0 +25.8 70 +47 +55 опасность
перегрева
1008.1 1008.0
09 23.05 СЗ 3 10 км 6/3 600 м
[Cb calv Ac trans]
+33.4 +27.1 70 +52 +60 опасность
перегрева
1006.0 1006.0
12 23.05 СЗ 3 10 км 6/3 600 м
[Cu Sc Ac trans Ci fib]
+32.0 +25.2 67 +46 +47 опасность
перегрева
1004.1 1004.0 +33.6
00 24.05 В 2 2000 м дымка 6/3 300 м
[Sc Ac trans Ci fib]
+27.6 +25.0 86 +40 +40 очень
душно
1004.0 1004.0
03 24.05 СВ 2 4000 м мгла 9/3 300 м
[Sc Ac trans Ci fib]
+28.6 +24.6 79 +41 +43 опасность
перегрева
1006.5 1007.0 +27.3 +33.6
06 24.05 З 2 10 км 9/1 600 м
[Cu hum Ac trans Ci fib]
+31.4 +23.9 64 +43 +54 опасность
перегрева
1006.5 1007.0
09 24.05 З 4 10 км 8/1 600 м
[Cu hum Ac trans Ci fib]
+32.8 +25.5 66 +48 +54 опасность
перегрева
1004.2 1004.0
12 24.05 З 4 10 км 6/1 600 м
[Cb calv Ac trans Ci fib]
+31.6 +26.0 72 +47 +48 опасность
перегрева
1003.7 1004.0 +33.6
00 25.05 В 2 2000 м дымка 10/3 300 м
[Sc diur, vesp Ac As]
+25.4 +24.8 96 +36 +36 очень
душно
1005.1 1005.0
03 25.05 СВ 2 4000 м мгла {дождь} 9/3 300 м
[Sc Ac As Ci fib]
+26.4 +24.4 89 +37 +40 очень
душно
1005.1 1005.0 +25.0 +33.6 4
06 25.05 ЮЗ 2 4000 м мгла 10/3 300 м
[Cu Sc Ac As]
+28.6 +24.0 76 +40 +44 очень
душно
1007.2 1007.0
09 25.05 ЮЗ 2 4000 м 10/3 300 м
[Cu Sc Ac As]
+29.4 +25.1 78 +43 +46 опасность
перегрева
1004.9 1005.0
12 25.05 ЮЗ 2 4000 м гроза, ливневой дождь 10/4 300 м
[Cb calv Ac As]
+28.6 +26.4 88 +44 +44 опасность
перегрева
1004.0 1004.0 +29.8
00 26.05 ЮЗ 1 2000 м дымка {дождь} 10/4 300 м
[Cu Sc Ac As]
+24.0 +23.7 98 +33 +33 очень
душно
1004.5 1005.0
03 26.05 ЮЗ 1 2000 м в посл. час морось 10/4 300 м
[Sc Ac As]
+25.0 +24.7 98 +35 +36 очень
душно
1006.2 1006.0 +22.4 +29.8 82
06 26.05 СЗ 1 4000 м мгла 10/3 300 м
[Cb calv Ac As]
+27.6 +25.6 89 +41 +46 опасность
перегрева
1006.1 1006.0
09 26.05 ЮЗ 1 10 км 10/3 600 м
[Cb calv Ac As]
+30.4 +26.2 78 +46 +50 опасность
перегрева
1003.3 1003.0
12 26.05 З 2 10 км 10/3 600 м
[Cb calv Ac As]
+29.4 +26.6 85 +45 +46 опасность
перегрева
1002.1 1002.0 +31.4

 

Местоположение метеостанции Cannanore (Kerala, Индия): широта 11.83 долгота 75.33 высота над уровнем моря 18 м.

В архиве по умолчанию представлена погода в Cannanore за последнюю неделю. Архивные данные за месяц целиком и за предыдущие месяцы, начиная с января 2011 года, Вы можете получить, выбрав интересующий диапазон дат из раскрывающегося списка и нажав кнопку "Ввод!".


*Определитесь, кто Вы:
робот инопланетянин человек

Внимание! Время в таблицах - всемирное. Для получения местного времени необходимо прибавить поправку, которая в Cannanore равна 5.5 ч.

Смотрите также архив погоды в соседних городах и на ближайших метеорологических станциях:

Погода в Madikeri (Karnataka, Индия) (79 км)
Погода в Kozhikode (Kerala, Индия) (81 км)
Погода в Karipur (Kerala, Индия) (103 км)
Погода в Mangalore Airport (Karnataka, Индия) (131 км)
Погода в Mangalore (Karnataka, Индия) (136 км)
Погода в Mysore (Karnataka, Индия) (158 км)
Погода в Udhagamandalam (Tamil Nadu, Индия) (160 км)
Погода в Chickmagalur (Karnataka, Индия) (164 км)
Погода в Hassan (Karnataka, Индия) (167 км)
Погода в Coonoor (Tamil Nadu, Индия) (169 км)

Пояснения к столбцам:

Ветер - указаны скорость ветра в м/с - средняя за 10 мин, порывы в срок и между сроками (в фигурных скобках) и направление, откуда дует ветер: С - северный, СВ - северо-восточный, В - восточный, ЮВ - юго-восточный, Ю - южный, ЮЗ - юго-западный, З - западный, СЗ - северо-западный.
Видимость - горизонтальная дальность видимости в метрах или километрах. При видимости от 1 до 10 км при отсутствии осадков обычно наблюдается дымка, при ухудшении видимости до 1 км и менее - туман. В сухую погоду видимость может ухудшаться дымом, пылью или мглою.
Явления - указаны атмосферные явления, наблюдавшиеся в срок или в последний час перед сроком; фигурными скобками обозначены явления, наблюдавшиеся между сроками (за 1-3 часа до срока); квадратными скобками обозначены град или гололедные отложения с указанием их диаметра в мм.
Облачность - указаны через наклонную черту общая и нижняя облачность в баллах и высота нижней границы облаков в метрах; квадратными скобками обозначены формы облаков: Ci - перистые, Cs - перисто-слоистые, Cc - перисто-кучевые, Ac - высококучевые, As - высокослоистые, Sc - слоисто-кучевые, Ns - слоисто-дождевые, Cu - кучевые, Cb - кучево-дождевые. Подробнее классификацию облаков см. в Атласе облаков (PDF).
T - Температура воздуха - температура, измеренная на высоте 2 м над землей.
Td - Температура точки росы - температура, при понижении до которой содержащийся в воздухе водяной пар достигнет насыщения.
f - Относительная влажность воздуха - влажноcть воздуха, измеренная на высоте 2 м над землей.
Te - Эффективная температура - температура, которую ощущает одетый по сезону человек в тени. Характеристика душности погоды. При расчете учитывается влияние влажности воздуха и скорости ветра на теплоощущения человека.
Tes - Эффективная температура на солнце - температура, которую ощущает человек, с поправкой на солнечный нагрев. Характеристика знойности погоды. Зависит от высоты солнца над горизонтом, облачности и скорости ветра. Ночью, в пасмурную погоду, а также при ветре 12 м/с и более поправка равна нулю.
P - Атмосферное давление - приведенное к уровню моря атмосферное давление.
Po - Атмосферное давление - измеренное на уровне метеостанции атмосферное давление.
Tmin - Минимальная температура - минимум температуры воздуха на высоте 2 м над землей.
Tmax - Максимальная температура - максимум температуры воздуха на высоте 2 м над землей.
R - Количество осадков - Количество выпавших осадков за период времени, мм. При наведении курсора мыши на число - период времени, за который выпало указанное количество осадков.
R24 - Количество осадков - Количество выпавших осадков за 24 часа, мм.
S - Снежный покров - Высота снежного покрова, см. При наведении курсора мыши на число - состояние снежного покрова и степень покрытия местности в баллах.